SILO ALERT LOG
| Silo ID | Alert Type | Alert Message | Silo Type | Points | Depth (mm) | Strength | Temperature (°C) | Humidity (%) | Height (mm) | Volume (㎥) | Weight (t) | Flag | Time |
|---|---|---|---|---|---|---|---|---|---|---|---|---|---|
| DJSSD04 | Temperature | 온도센서 상태 이상 | 평 | 0 | 8200 | 0 | -999 | -999 | -120 | -16.702 | 0 | 31 | 2024-01-12 00:39:33.000 |
| DJSSD05 | Temperature | 온도센서 측정값이 0도 미만 | 평 | 847 | 2553 | 4855 | -45.4 | 43.7 | 5526 | 769.174 | 486.272 | 0 | 2024-01-12 00:39:33.000 |
| DJSAD12 | Humidity | 습도센서 측정값이 80% 초과 | 평 | 0 | 7700 | 0 | 5.4 | 84.6 | -120 | -17.075 | 0 | 31 | 2024-01-12 00:39:32.000 |
| DJSAD08 | Humidity | 습도센서 측정값이 80% 초과 | 평 | 558 | 2450 | 4560 | 10.4 | 82.9 | 5129 | 729.884 | 461.433 | 29 | 2024-01-12 00:39:32.000 |
| DJHNR01 | Humidity | 습도센서 측정값이 80% 초과 | 호퍼 | 471 | 4309 | 4860 | 7.6 | 99.9 | 11070 | 472.697 | 298.839 | 13 | 2024-01-12 00:39:32.000 |
| DJSSD01 | Humidity | 습도센서 측정값이 80% 초과 | 평 | 796 | 2552 | 4652 | 6.3 | 83.2 | 5527 | 769.31 | 486.358 | 0 | 2024-01-12 00:39:32.000 |
| DJSAD07 | Humidity | 습도센서 측정값이 80% 초과 | 평 | 267 | 2448 | 3317 | 3.7 | 82.7 | 5131 | 730.173 | 461.615 | 11 | 2024-01-12 00:39:31.000 |
| DJSSD09 | Temperature | 온도센서 측정값이 0도 미만 | 평 | 116 | 2907 | 2877 | -45.4 | 0 | 4772 | 664.239 | 419.932 | 11 | 2024-01-12 00:39:31.000 |
| DJDJD04 | Humidity | 습도센서 측정값이 80% 초과 | 평 | 281 | 4187 | 4408 | 5.1 | 81.4 | 3492 | 423.169 | 267.527 | 11 | 2024-01-12 00:39:31.000 |
| DJSAD18 | Humidity | 습도센서 측정값이 80% 초과 | 평 | 115 | 1395 | 5836 | 5.9 | 80.8 | 6184 | 615.858 | 389.346 | 11 | 2024-01-12 00:39:30.000 |
| DJSSD12 | Temperature | 온도센서 상태 이상 | 호퍼 | 0 | 11350 | 0 | -999 | -999 | -120 | 0 | 0 | 31 | 2024-01-12 00:39:24.000 |
| DJHNR12 | Humidity | 습도센서 측정값이 80% 초과 | 호퍼 | 0 | 10500 | 0 | 2 | 81.7 | -120 | 0 | 0 | 31 | 2024-01-12 00:39:24.000 |
| DJHNR03 | Temperature | 온도센서 상태 이상 | 호퍼 | 0 | 15500 | 0 | -999 | -999 | -119 | 0 | 0 | 31 | 2024-01-12 00:39:24.000 |
| DJSAD01 | Humidity | 습도센서 측정값이 80% 초과 | 평 | 450 | 1518 | 7397 | 2.7 | 86.8 | 7261 | 300.605 | 190.043 | 0 | 2024-01-11 23:39:40.000 |
| DJSAD03 | Humidity | 습도센서 측정값이 80% 초과 | 평 | 441 | 1700 | 6111 | 4.1 | 84.5 | 7079 | 293.052 | 185.267 | 0 | 2024-01-11 23:39:39.000 |
| DJSAD02 | Humidity | 습도센서 측정값이 80% 초과 | 평 | 378 | 1132 | 4357 | 3.3 | 86.8 | 7647 | 316.579 | 200.141 | 11 | 2024-01-11 23:39:39.000 |
| DJSAD08 | Humidity | 습도센서 측정값이 80% 초과 | 평 | 654 | 2484 | 4546 | 10.5 | 82.9 | 5095 | 725.044 | 458.373 | 29 | 2024-01-11 23:39:39.000 |
| DJSSD01 | Humidity | 습도센서 측정값이 80% 초과 | 평 | 794 | 2577 | 4656 | 6.3 | 83.2 | 5502 | 765.898 | 484.201 | 0 | 2024-01-11 23:39:33.000 |
| DJSSD04 | Temperature | 온도센서 상태 이상 | 평 | 0 | 8200 | 0 | -999 | -999 | -120 | -16.702 | 0 | 31 | 2024-01-11 23:39:33.000 |
| DJHNR01 | Humidity | 습도센서 측정값이 80% 초과 | 호퍼 | 471 | 4307 | 4847 | 7.6 | 99.9 | 11072 | 472.84 | 298.929 | 13 | 2024-01-11 23:39:33.000 |
[첫 페이지] [9988] [9989] [9990] [9991] 9992 [9993] [9994] [9995] [9996] [마지막 페이지]